Total_Precipitation_Accumulation
0.61 0.80 0.91 0.84 0.86 0.94 0.86 0.82 0.83 0.72 0.59 0.65 0.69 0.70 0.65 0.63 0.57 0.56 0.56 0.52 0.55 0.49 0.44 0.39 0.41 0.45 0.58 0.64 0.63 0.65 0.71 0.68 0.63 0.59 0.68 0.80 0.86 0.97 1.08 1.16 1.27 1.27 1.25 1.32
0.62 0.64 0.57 0.60 0.69 0.86 0.89 0.92 0.87 0.78 0.63 0.64 0.69 0.73 0.65 0.61 0.57 0.49 0.47 0.44 0.46 0.42 0.40 0.36 0.40 0.45 0.47 0.52 0.53 0.57 0.60 0.59 0.53 0.49 0.57 0.71 0.86 0.98 1.15 1.35 1.60 1.53 1.40 1.42
0.60 0.53 0.45 0.50 0.61 0.79 0.81 0.76 0.70 0.80 0.74 0.74 0.84 0.90 0.74 0.65 0.60 0.52 0.47 0.48 0.49 0.46 0.41 0.37 0.38 0.45 0.42 0.43 0.50 0.55 0.58 0.57 0.56 0.61 0.78 1.09 1.41 1.58 1.66 1.71 1.95 2.00 1.84 1.77
0.75 0.51 0.43 0.48 0.55 0.64 0.86 0.62 0.54 0.70 0.94 0.94 0.83 1.01 0.72 0.64 0.70 0.58 0.52 0.48 0.49 0.50 0.50 0.46 0.42 0.45 0.39 0.42 0.52 0.58 0.59 0.67 0.69 0.81 1.12 1.56 1.92 2.09 2.07 2.14 2.23 2.34 2.26 2.09
0.63 0.43 0.44 0.50 0.46 0.56 0.82 0.68 0.70 0.78 0.87 0.84 0.61 0.71 0.63 0.63 0.73 0.62 0.57 0.53 0.52 0.47 0.48 0.51 0.50 0.51 0.50 0.52 0.58 0.67 0.76 0.91 1.08 1.20 1.37 1.70 1.88 1.95 2.08 2.25 2.51 2.70 2.77 2.72
0.47 0.37 0.40 0.42 0.42 0.50 0.66 0.81 0.95 0.95 0.96 0.92 0.50 0.49 0.55 0.55 0.55 0.59 0.62 0.63 0.60 0.53 0.47 0.48 0.57 0.61 0.60 0.70 0.79 0.84 1.02 1.14 1.19 1.32 1.43 1.54 1.63 1.77 2.00 2.18 2.43 2.61 2.66 2.72
0.55 0.47 0.38 0.37 0.56 0.61 0.66 0.95 1.31 1.41 1.30 0.90 0.41 0.43 0.49 0.40 0.35 0.40 0.45 0.46 0.46 0.49 0.50 0.54 0.57 0.65 0.68 0.75 0.91 1.01 1.11 1.25 1.26 1.34 1.44 1.45 1.51 1.65 1.82 1.91 1.97 2.01 2.00 2.08
0.56 0.55 0.38 0.34 0.42 0.54 0.56 0.69 1.10 1.31 1.08 0.74 0.46 0.54 0.51 0.33 0.27 0.24 0.28 0.33 0.39 0.51 0.57 0.60 0.61 0.73 0.81 0.89 1.00 1.14 1.23 1.31 1.34 1.40 1.47 1.44 1.54 1.67 1.75 1.70 1.66 1.73 1.76 1.83
0.49 0.48 0.29 0.29 0.29 0.36 0.56 0.56 0.62 0.80 0.65 0.64 0.52 0.47 0.39 0.25 0.22 0.21 0.27 0.40 0.50 0.56 0.62 0.68 0.71 0.80 0.89 0.98 1.08 1.19 1.33 1.41 1.46 1.46 1.50 1.61 1.67 1.68 1.65 1.52 1.47 1.54 1.47 1.43
0.38 0.47 0.38 0.32 0.36 0.37 0.43 0.56 0.70 0.82 0.87 0.79 0.54 0.47 0.45 0.33 0.29 0.32 0.37 0.47 0.62 0.71 0.75 0.81 0.89 0.96 1.02 1.05 1.16 1.26 1.38 1.52 1.50 1.46 1.59 1.76 1.73 1.50 1.35 1.22 1.22 1.25 1.29 1.32
0.28 0.43 0.48 0.42 0.39 0.37 0.43 0.47 0.62 0.73 0.69 0.90 0.98 0.91 0.72 0.67 0.55 0.59 0.63 0.72 0.90 0.95 0.97 0.96 1.03 1.10 1.10 1.12 1.22 1.27 1.37 1.54 1.57 1.45 1.55 1.58 1.40 1.15 1.03 1.02 1.02 1.02 1.02 1.04
0.26 0.39 0.45 0.36 0.25 0.24 0.34 0.36 0.44 0.72 0.71 0.72 1.05 1.05 0.85 0.88 0.87 1.00 1.08 1.23 1.18 1.16 1.19 1.10 1.06 1.09 1.03 1.03 1.13 1.23 1.35 1.43 1.36 1.31 1.29 1.12 0.95 0.85 0.81 0.78 0.75 0.76 0.80 0.79
0.36 0.45 0.56 0.53 0.46 0.32 0.32 0.27 0.30 0.44 0.65 0.73 1.07 1.07 0.79 0.87 1.00 1.19 1.31 1.31 1.12 1.00 0.94 0.90 0.89 0.83 0.81 0.85 0.90 0.94 1.09 1.18 1.01 0.92 0.95 0.91 0.83 0.77 0.74 0.72 0.69 0.67 0.72 0.76
0.38 0.40 0.48 0.56 0.45 0.30 0.30 0.26 0.27 0.40 0.63 0.65 0.75 0.78 0.70 0.82 0.99 1.10 1.14 1.03 0.81 0.71 0.69 0.66 0.59 0.55 0.60 0.63 0.63 0.61 0.68 0.81 0.76 0.70 0.75 0.77 0.77 0.76 0.77 0.77 0.75 0.72 0.74 0.78
0.37 0.37 0.30 0.29 0.23 0.22 0.22 0.23 0.26 0.33 0.39 0.53 0.59 0.56 0.56 0.62 0.66 0.68 0.70 0.69 0.60 0.55 0.48 0.46 0.46 0.46 0.52 0.53 0.53 0.51 0.49 0.54 0.58 0.59 0.61 0.71 0.76 0.78 0.77 0.79 0.76 0.75 0.76 0.76
0.34 0.34 0.24 0.25 0.21 0.20 0.17 0.15 0.19 0.24 0.30 0.38 0.40 0.40 0.34 0.32 0.30 0.29 0.31 0.38 0.38 0.35 0.31 0.35 0.38 0.42 0.50 0.51 0.49 0.50 0.49 0.46 0.47 0.49 0.52 0.63 0.70 0.72 0.76 0.75 0.73 0.74 0.77 0.78
0.35 0.37 0.35 0.27 0.20 0.24 0.25 0.17 0.17 0.20 0.22 0.28 0.34 0.36 0.33 0.26 0.23 0.23 0.21 0.22 0.23 0.25 0.26 0.29 0.33 0.39 0.45 0.44 0.44 0.46 0.46 0.44 0.43 0.47 0.51 0.58 0.62 0.61 0.64 0.65 0.61 0.61 0.67 0.70
0.29 0.37 0.47 0.37 0.33 0.38 0.25 0.14 0.12 0.14 0.17 0.23 0.27 0.26 0.26 0.23 0.23 0.22 0.19 0.19 0.21 0.22 0.23 0.27 0.30 0.34 0.42 0.43 0.43 0.43 0.42 0.41 0.40 0.41 0.44 0.51 0.54 0.55 0.55 0.57 0.55 0.55 0.61 0.66
0.23 0.37 0.57 0.52 0.42 0.26 0.18 0.15 0.13 0.12 0.17 0.21 0.20 0.18 0.17 0.16 0.21 0.21 0.17 0.16 0.18 0.18 0.19 0.22 0.27 0.35 0.42 0.44 0.47 0.48 0.45 0.44 0.44 0.43 0.42 0.44 0.47 0.50 0.51 0.47 0.47 0.48 0.53 0.57
0.29 0.36 0.58 0.61 0.57 0.37 0.20 0.12 0.13 0.15 0.25 0.23 0.20 0.18 0.16 0.18 0.25 0.24 0.18 0.16 0.16 0.16 0.17 0.20 0.26 0.33 0.39 0.44 0.48 0.51 0.53 0.47 0.44 0.44 0.45 0.47 0.47 0.47 0.49 0.47 0.46 0.46 0.52 0.55
0.40 0.47 0.55 0.56 0.56 0.31 0.14 0.10 0.14 0.29 0.34 0.22 0.19 0.18 0.18 0.20 0.21 0.19 0.15 0.14 0.16 0.17 0.19 0.20 0.25 0.34 0.37 0.44 0.47 0.54 0.56 0.45 0.43 0.49 0.53 0.53 0.49 0.49 0.55 0.58 0.56 0.53 0.52 0.55
0.51 0.56 0.53 0.55 0.60 0.40 0.16 0.17 0.26 0.32 0.23 0.18 0.17 0.16 0.16 0.16 0.15 0.14 0.15 0.15 0.18 0.20 0.21 0.22 0.24 0.29 0.33 0.39 0.44 0.49 0.52 0.50 0.50 0.51 0.55 0.55 0.55 0.55 0.59 0.65 0.66 0.66 0.65 0.65
0.49 0.54 0.58 0.53 0.43 0.26 0.18 0.23 0.25 0.25 0.24 0.19 0.17 0.15 0.14 0.15 0.15 0.15 0.16 0.16 0.19 0.21 0.23 0.25 0.28 0.31 0.32 0.38 0.41 0.45 0.50 0.54 0.52 0.52 0.54 0.57 0.58 0.58 0.58 0.62 0.67 0.70 0.70 0.69
0.41 0.40 0.52 0.49 0.30 0.23 0.23 0.22 0.24 0.23 0.20 0.16 0.15 0.15 0.15 0.15 0.16 0.16 0.16 0.14 0.16 0.19 0.22 0.27 0.33 0.37 0.37 0.42 0.45 0.54 0.55 0.53 0.56 0.57 0.58 0.58 0.58 0.57 0.58 0.59 0.61 0.62 0.65 0.64
0.49 0.54 0.56 0.51 0.36 0.31 0.29 0.26 0.25 0.23 0.18 0.15 0.13 0.13 0.15 0.16 0.16 0.17 0.17 0.15 0.15 0.17 0.19 0.24 0.32 0.39 0.41 0.45 0.49 0.57 0.56 0.56 0.59 0.63 0.63 0.60 0.58 0.57 0.58 0.56 0.56 0.58 0.58 0.64
0.46 0.57 0.65 0.61 0.41 0.39 0.34 0.25 0.22 0.23 0.21 0.16 0.13 0.12 0.12 0.14 0.15 0.17 0.16 0.14 0.13 0.14 0.16 0.21 0.25 0.29 0.34 0.39 0.44 0.50 0.54 0.54 0.58 0.63 0.62 0.59 0.62 0.60 0.59 0.58 0.60 0.66 0.67 0.73